Tracking 29892 objects as of 21-Nov-2024
HD Live streaming from Space Station
objects crossing your sky now

USA 329

Track USA 329 now!
10-day predictions


NORAD ID: 52890
Int'l Code: 2022-064C
Perigee: 528.8 km
Apogee: 537.0 km
Inclination: 53.0 °
Period: 95.1 minutes
Semi major axis: 6903 km
RCS: Unknown
Launch date: June 19, 2022
Source: United States (US)
Launch site: AIR FORCE EASTERN TEST RANGE (AFETR)
Your satellite tracking list
Your tracking list is empty




NASA's NSSDC Master Catalog

Two Line Element Set (TLE):
1 52890U 22064C   24316.71940197 0.00000160  00000-0  88312-5 0    09
2 52890  53.0125 209.4844 0005879  20.4589 339.5410 15.13426190    07
Source of the keplerian elements: McCants